CAN3892 KMKJ-KAKR

Flight info

Callsign CAN3892
Flight time 1h 10m
Altitude 29000
Route BKW JPU ZZIPS1
Aircraft SF50/L-SDGRWY/L

Departure

Time 2026-04-12 16:36
Airport Mountain Empire Airport (KMKJ)

Arrival

Time 2026-04-12 17:46
Airport Akron Fulton International Airport (KAKR)
Time Latitude Longitude Altitude Speed Heading
2026-04-12 16:27 36.89571 -81.34262 2497 ft 0 kts 343°
2026-04-12 16:33 36.89579 -81.34269 2497 ft 6 kts 317°
2026-04-12 16:33 36.89570 -81.34368 2498 ft 16 kts 254°
2026-04-12 16:33 36.89532 -81.34535 2498 ft 23 kts 251°
2026-04-12 16:34 36.89479 -81.34735 2501 ft 26 kts 253°
2026-04-12 16:34 36.89427 -81.34950 2512 ft 25 kts 253°
2026-04-12 16:34 36.89381 -81.35143 2522 ft 22 kts 252°
2026-04-12 16:34 36.89340 -81.35320 2530 ft 20 kts 253°
2026-04-12 16:35 36.89300 -81.35480 2534 ft 18 kts 249°
2026-04-12 16:35 36.89269 -81.35614 2548 ft 14 kts 255°
2026-04-12 16:35 36.89243 -81.35726 2554 ft 13 kts 248°
2026-04-12 16:35 36.89225 -81.35818 2559 ft 9 kts 296°
2026-04-12 16:36 36.89291 -81.35808 2561 ft 19 kts 74°
2026-04-12 16:36 36.89382 -81.35433 2537 ft 77 kts 73°
2026-04-12 16:36 36.89585 -81.34655 2857 ft 94 kts 71°
2026-04-12 16:36 36.89821 -81.33839 3283 ft 114 kts 72°
2026-04-12 16:37 36.90074 -81.32767 3642 ft 142 kts 73°
2026-04-12 16:37 36.90365 -81.31485 3956 ft 166 kts 73°
2026-04-12 16:37 36.90715 -81.30016 4522 ft 185 kts 74°
2026-04-12 16:37 36.91088 -81.28449 5271 ft 190 kts 73°
2026-04-12 16:38 36.91523 -81.26891 5976 ft 190 kts 69°
2026-04-12 16:38 36.92247 -81.25518 6614 ft 192 kts 36°
2026-04-12 16:38 36.93465 -81.25038 7195 ft 182 kts 352°
2026-04-12 16:38 36.94706 -81.25316 7706 ft 183 kts 348°
2026-04-12 16:39 36.95977 -81.25282 8322 ft 187 kts
2026-04-12 16:39 36.97270 -81.25042 8801 ft 188 kts
2026-04-12 16:39 36.98570 -81.24821 9268 ft 188 kts
2026-04-12 16:39 36.99875 -81.24627 9765 ft 189 kts
2026-04-12 16:40 37.01191 -81.24432 10221 ft 191 kts
2026-04-12 16:40 37.02509 -81.24220 10646 ft 191 kts
2026-04-12 16:40 37.03843 -81.24017 11079 ft 194 kts
2026-04-12 16:40 37.05174 -81.23804 11475 ft 196 kts
2026-04-12 16:41 37.06530 -81.23590 11906 ft 197 kts
2026-04-12 16:41 37.07905 -81.23376 12308 ft 200 kts
2026-04-12 16:41 37.09289 -81.23157 12722 ft 202 kts
2026-04-12 16:41 37.10688 -81.22939 13146 ft 203 kts
2026-04-12 16:42 37.12098 -81.22717 13543 ft 205 kts
2026-04-12 16:42 37.13522 -81.22493 13989 ft 207 kts
2026-04-12 16:42 37.14956 -81.22276 14402 ft 209 kts
2026-04-12 16:43 37.19300 -81.21601 15570 ft 210 kts
2026-04-12 16:43 37.20750 -81.21373 15978 ft 210 kts
2026-04-12 16:43 37.22204 -81.21147 16353 ft 211 kts
2026-04-12 16:44 37.23668 -81.20920 16738 ft 213 kts
2026-04-12 16:44 37.25139 -81.20688 17136 ft 214 kts
2026-04-12 16:44 37.26617 -81.20457 17531 ft 214 kts
2026-04-12 16:44 37.28083 -81.20227 17903 ft 216 kts
2026-04-12 16:45 37.29575 -81.19992 18283 ft 217 kts
2026-04-12 16:45 37.31076 -81.19757 18669 ft 218 kts
2026-04-12 16:45 37.32586 -81.19521 19007 ft 219 kts
2026-04-12 16:45 37.34093 -81.19282 19356 ft 219 kts
2026-04-12 16:46 37.35609 -81.19045 19695 ft 219 kts
2026-04-12 16:46 37.37124 -81.18807 20053 ft 219 kts
2026-04-12 16:46 37.38638 -81.18567 20426 ft 219 kts
2026-04-12 16:46 37.40155 -81.18327 20780 ft 220 kts
2026-04-12 16:47 37.41674 -81.18089 21119 ft 220 kts
2026-04-12 16:47 37.43193 -81.17849 21482 ft 220 kts
2026-04-12 16:47 37.44701 -81.17611 21898 ft 218 kts
2026-04-12 16:47 37.46183 -81.17377 22300 ft 216 kts 360°
2026-04-12 16:48 37.47671 -81.17144 22701 ft 215 kts 360°
2026-04-12 16:48 37.49152 -81.16912 23116 ft 213 kts 359°
2026-04-12 16:48 37.50620 -81.16681 23531 ft 212 kts 359°
2026-04-12 16:48 37.52080 -81.16450 23940 ft 211 kts 359°
2026-04-12 16:49 37.53531 -81.16222 24285 ft 209 kts 358°
2026-04-12 16:49 37.54976 -81.15996 24590 ft 209 kts 358°
2026-04-12 16:49 37.56413 -81.15769 24920 ft 208 kts 358°
2026-04-12 16:49 37.57839 -81.15544 25234 ft 206 kts 358°
2026-04-12 16:50 37.59267 -81.15321 25544 ft 206 kts 358°
2026-04-12 16:50 37.60675 -81.15098 25870 ft 206 kts 358°
2026-04-12 16:50 37.62094 -81.14874 26190 ft 206 kts 358°
2026-04-12 16:50 37.63510 -81.14646 26512 ft 204 kts 358°
2026-04-12 16:51 37.64922 -81.14426 26822 ft 204 kts 357°
2026-04-12 16:51 37.66330 -81.14204 27139 ft 204 kts 357°
2026-04-12 16:51 37.67737 -81.13982 27403 ft 204 kts 357°
2026-04-12 16:51 37.69144 -81.13756 27747 ft 203 kts 357°
2026-04-12 16:52 37.70540 -81.13535 28062 ft 202 kts 357°
2026-04-12 16:52 37.71937 -81.13313 28377 ft 202 kts 357°
2026-04-12 16:52 37.73327 -81.13092 28699 ft 201 kts 357°
2026-04-12 16:52 37.74714 -81.12871 29012 ft 201 kts 357°
2026-04-12 16:53 37.76098 -81.12652 29308 ft 200 kts 357°
2026-04-12 16:53 37.77020 -81.12506 29404 ft 205 kts 357°
2026-04-12 16:53 37.78465 -81.12410 29416 ft 210 kts 347°
2026-04-12 16:53 37.80429 -81.12723 29412 ft 222 kts 345°
2026-04-12 16:54 37.81998 -81.12940 29417 ft 231 kts 346°
2026-04-12 16:54 37.83624 -81.13171 29416 ft 238 kts 346°
2026-04-12 16:54 37.84749 -81.13337 29414 ft 243 kts 346°
2026-04-12 16:54 37.86448 -81.13592 29413 ft 248 kts 346°
2026-04-12 16:55 37.88179 -81.13849 29413 ft 253 kts 346°
2026-04-12 16:55 37.89920 -81.14107 29407 ft 257 kts 346°
2026-04-12 16:55 37.91711 -81.14373 29402 ft 261 kts 347°
2026-04-12 16:55 37.93530 -81.14643 29396 ft 264 kts 346°
2026-04-12 16:56 37.95366 -81.14915 29391 ft 267 kts 347°
2026-04-12 16:56 37.97226 -81.15192 29389 ft 270 kts 347°
2026-04-12 16:56 37.99105 -81.15472 29380 ft 273 kts 347°
2026-04-12 16:56 38.00999 -81.15755 29371 ft 275 kts 347°
2026-04-12 16:57 38.02907 -81.16037 29363 ft 277 kts 347°
2026-04-12 16:57 38.04815 -81.16319 29358 ft 275 kts 347°
2026-04-12 16:57 38.06714 -81.16603 29343 ft 275 kts 347°
2026-04-12 16:57 38.08586 -81.16884 29339 ft 275 kts 347°
2026-04-12 16:58 38.10486 -81.17167 29331 ft 276 kts 347°
2026-04-12 16:58 38.12394 -81.17453 29323 ft 276 kts 347°
2026-04-12 16:58 38.14301 -81.17737 29301 ft 275 kts 347°
2026-04-12 16:58 38.16200 -81.18021 29313 ft 275 kts 347°
2026-04-12 16:59 38.18104 -81.18306 29313 ft 275 kts 347°
2026-04-12 16:59 38.20009 -81.18590 29304 ft 275 kts 345°
2026-04-12 16:59 38.21903 -81.18873 29307 ft 274 kts 347°
2026-04-12 16:59 38.23801 -81.19155 29306 ft 275 kts 347°
2026-04-12 17:00 38.25701 -81.19440 29310 ft 274 kts 347°
2026-04-12 17:00 38.27573 -81.19721 29302 ft 275 kts 347°
2026-04-12 17:00 38.29479 -81.20006 29305 ft 275 kts 347°
2026-04-12 17:00 38.31379 -81.20289 29296 ft 274 kts 347°
2026-04-12 17:01 38.33275 -81.20574 29301 ft 274 kts 347°
2026-04-12 17:01 38.35170 -81.20859 29296 ft 275 kts 347°
2026-04-12 17:01 38.37065 -81.21142 29298 ft 274 kts 347°
2026-04-12 17:01 38.38964 -81.21429 29295 ft 275 kts 347°
2026-04-12 17:02 38.40864 -81.21714 29293 ft 275 kts 347°
2026-04-12 17:02 38.42771 -81.22000 29292 ft 275 kts 347°
2026-04-12 17:02 38.44673 -81.22286 29291 ft 275 kts 347°
2026-04-12 17:02 38.46548 -81.22569 29289 ft 275 kts 347°
2026-04-12 17:03 38.48445 -81.22857 29288 ft 275 kts 347°
2026-04-12 17:03 38.50349 -81.23143 29288 ft 275 kts 347°
2026-04-12 17:03 38.52243 -81.23428 29288 ft 274 kts 347°
2026-04-12 17:03 38.54135 -81.23715 29285 ft 274 kts 347°
2026-04-12 17:04 38.56034 -81.24002 29284 ft 274 kts 347°
2026-04-12 17:04 38.57930 -81.24288 29285 ft 275 kts 347°
2026-04-12 17:04 38.59822 -81.24574 29288 ft 273 kts 347°
2026-04-12 17:04 38.61713 -81.24860 29285 ft 273 kts 347°
2026-04-12 17:05 38.63599 -81.25147 29286 ft 273 kts 347°
2026-04-12 17:05 38.65490 -81.25434 29288 ft 274 kts 346°
2026-04-12 17:05 38.67384 -81.25719 29283 ft 274 kts 347°
2026-04-12 17:05 38.69282 -81.26009 29286 ft 274 kts 346°
2026-04-12 17:06 38.71180 -81.26298 29289 ft 274 kts 347°
2026-04-12 17:06 38.73076 -81.26585 29287 ft 274 kts 347°
2026-04-12 17:06 38.74966 -81.26872 29278 ft 273 kts 347°
2026-04-12 17:06 38.76834 -81.27156 29281 ft 274 kts 347°
2026-04-12 17:07 38.78731 -81.27444 29285 ft 274 kts 346°
2026-04-12 17:07 38.80635 -81.27733 29286 ft 274 kts 346°
2026-04-12 17:07 38.82527 -81.28021 29278 ft 274 kts 347°
2026-04-12 17:07 38.84419 -81.28308 29282 ft 274 kts 347°
2026-04-12 17:08 38.86314 -81.28598 29286 ft 274 kts 347°
2026-04-12 17:08 38.88203 -81.28885 29284 ft 273 kts 346°
2026-04-12 17:08 38.90093 -81.29171 29278 ft 274 kts 346°
2026-04-12 17:08 38.91987 -81.29462 29277 ft 274 kts 346°
2026-04-12 17:09 38.93880 -81.29751 29279 ft 274 kts 346°
2026-04-12 17:09 38.95770 -81.30037 29285 ft 273 kts 347°
2026-04-12 17:09 38.97662 -81.30326 29274 ft 273 kts 346°
2026-04-12 17:09 38.99553 -81.30616 29279 ft 274 kts 346°
2026-04-12 17:10 39.01445 -81.30905 29282 ft 274 kts 346°
2026-04-12 17:10 39.03334 -81.31193 29283 ft 274 kts 346°
2026-04-12 17:10 39.05225 -81.31482 29279 ft 274 kts 346°
2026-04-12 17:10 39.07091 -81.31769 29280 ft 273 kts 346°
2026-04-12 17:11 39.08985 -81.32060 29285 ft 274 kts 346°
2026-04-12 17:11 39.10877 -81.32349 29285 ft 273 kts 346°
2026-04-12 17:11 39.12770 -81.32640 29287 ft 274 kts 346°
2026-04-12 17:11 39.14658 -81.32931 29286 ft 273 kts 346°
2026-04-12 17:12 39.16547 -81.33221 29290 ft 273 kts 346°
2026-04-12 17:12 39.18433 -81.33511 29290 ft 273 kts 346°
2026-04-12 17:12 39.20322 -81.33803 29287 ft 273 kts 346°
2026-04-12 17:12 39.22209 -81.34092 29290 ft 273 kts 346°
2026-04-12 17:13 39.24093 -81.34384 29296 ft 273 kts 346°
2026-04-12 17:13 39.25979 -81.34674 29296 ft 273 kts 346°
2026-04-12 17:13 39.27865 -81.34964 29290 ft 272 kts 346°
2026-04-12 17:13 39.29744 -81.35255 29294 ft 272 kts 346°
2026-04-12 17:14 39.31606 -81.35543 29295 ft 272 kts 346°
2026-04-12 17:14 39.33490 -81.35835 29298 ft 272 kts 346°
2026-04-12 17:14 39.35371 -81.36125 29290 ft 273 kts 346°
2026-04-12 17:14 39.37249 -81.36416 29291 ft 272 kts 346°
2026-04-12 17:15 39.39135 -81.36707 29297 ft 272 kts 346°
2026-04-12 17:15 39.41015 -81.36997 29292 ft 272 kts 346°
2026-04-12 17:15 39.42894 -81.37288 29287 ft 272 kts 346°
2026-04-12 17:15 39.44807 -81.37363 29286 ft 278 kts 356°
2026-04-12 17:16 39.46747 -81.37071 29287 ft 281 kts 359°
2026-04-12 17:16 39.48687 -81.36772 29287 ft 281 kts 358°
2026-04-12 17:16 39.50630 -81.36488 29287 ft 281 kts 358°
2026-04-12 17:16 39.52567 -81.36196 29284 ft 280 kts 359°
2026-04-12 17:17 39.54480 -81.35900 29289 ft 281 kts 359°
2026-04-12 17:17 39.56420 -81.35603 29287 ft 280 kts 359°
2026-04-12 17:17 39.58355 -81.35309 29285 ft 280 kts 359°
2026-04-12 17:17 39.60292 -81.35015 29285 ft 280 kts 358°
2026-04-12 17:18 39.62229 -81.34717 29289 ft 280 kts 359°
2026-04-12 17:18 39.64169 -81.34421 29287 ft 280 kts 358°
2026-04-12 17:18 39.66104 -81.34125 29278 ft 280 kts 358°
2026-04-12 17:18 39.68045 -81.33828 29280 ft 280 kts 358°
2026-04-12 17:19 39.69980 -81.33532 29283 ft 280 kts 358°
2026-04-12 17:19 39.71918 -81.33236 29284 ft 280 kts 358°
2026-04-12 17:19 39.73851 -81.32940 29280 ft 280 kts 358°
2026-04-12 17:19 39.75788 -81.32644 29282 ft 280 kts 358°
2026-04-12 17:20 39.77704 -81.32351 29282 ft 280 kts 358°
2026-04-12 17:20 39.79664 -81.32050 29286 ft 280 kts 358°
2026-04-12 17:20 39.81572 -81.31756 29069 ft 279 kts 358°
2026-04-12 17:20 39.83498 -81.31461 28716 ft 278 kts 358°
2026-04-12 17:21 39.85413 -81.31168 28349 ft 277 kts 358°
2026-04-12 17:21 39.87326 -81.30873 27986 ft 276 kts 358°
2026-04-12 17:21 39.89242 -81.30580 27624 ft 277 kts 358°
2026-04-12 17:21 39.91166 -81.30284 27258 ft 279 kts 358°
2026-04-12 17:22 39.93101 -81.29988 26890 ft 281 kts 359°
2026-04-12 17:22 39.95047 -81.29687 26518 ft 282 kts 359°
2026-04-12 17:22 39.97002 -81.29386 26144 ft 284 kts 359°
2026-04-12 17:22 39.98969 -81.29083 25771 ft 285 kts 359°
2026-04-12 17:23 40.00944 -81.28776 25391 ft 287 kts 359°
2026-04-12 17:23 40.02933 -81.28470 25009 ft 288 kts 359°
2026-04-12 17:23 40.04934 -81.28161 24628 ft 290 kts 359°
2026-04-12 17:23 40.06942 -81.27852 24252 ft 291 kts 359°
2026-04-12 17:24 40.08962 -81.27538 23862 ft 293 kts 359°
2026-04-12 17:24 40.10986 -81.27224 23438 ft 293 kts 360°
2026-04-12 17:24 40.13016 -81.26909 23040 ft 294 kts 360°
2026-04-12 17:24 40.15048 -81.26595 22655 ft 295 kts 360°
2026-04-12 17:25 40.17071 -81.26281 22265 ft 296 kts 360°
2026-04-12 17:25 40.19120 -81.25963 21873 ft 298 kts
2026-04-12 17:25 40.21181 -81.25642 21478 ft 298 kts
2026-04-12 17:25 40.23252 -81.25321 21074 ft 299 kts
2026-04-12 17:26 40.25325 -81.24998 20686 ft 301 kts
2026-04-12 17:26 40.27408 -81.24673 20286 ft 302 kts
2026-04-12 17:26 40.29496 -81.24347 19885 ft 303 kts
2026-04-12 17:26 40.31595 -81.24021 19484 ft 304 kts
2026-04-12 17:27 40.33699 -81.23693 19083 ft 305 kts
2026-04-12 17:27 40.35806 -81.23363 18677 ft 306 kts
2026-04-12 17:27 40.37932 -81.23032 18243 ft 308 kts
2026-04-12 17:27 40.40059 -81.22700 17829 ft 309 kts
2026-04-12 17:28 40.42197 -81.22365 17419 ft 309 kts
2026-04-12 17:28 40.44332 -81.22032 17010 ft 310 kts
2026-04-12 17:28 40.46482 -81.21697 16599 ft 311 kts
2026-04-12 17:28 40.48635 -81.21364 16187 ft 311 kts
2026-04-12 17:29 40.50794 -81.21150 15776 ft 311 kts 359°
2026-04-12 17:29 40.52929 -81.20946 15374 ft 312 kts 359°
2026-04-12 17:29 40.55083 -81.20733 15277 ft 309 kts 359°
2026-04-12 17:29 40.57215 -81.20522 15279 ft 305 kts 359°
2026-04-12 17:30 40.59325 -81.20316 15263 ft 303 kts 358°
2026-04-12 17:30 40.61431 -81.20113 15268 ft 304 kts 358°
2026-04-12 17:30 40.63554 -81.19907 15273 ft 305 kts 358°
2026-04-12 17:30 40.65673 -81.19696 15275 ft 306 kts 358°
2026-04-12 17:31 40.67800 -81.19488 15278 ft 307 kts 358°
2026-04-12 17:31 40.69935 -81.19279 15281 ft 307 kts 358°
2026-04-12 17:31 40.72029 -81.19067 14675 ft 294 kts 358°
2026-04-12 17:31 40.74091 -81.18866 12986 ft 299 kts 358°
2026-04-12 17:32 40.76165 -81.18670 11316 ft 298 kts 359°
2026-04-12 17:32 40.78204 -81.18466 10289 ft 294 kts 359°
2026-04-12 17:32 40.80247 -81.18259 10122 ft 296 kts 359°
2026-04-12 17:32 40.82326 -81.18060 9749 ft 301 kts 359°
2026-04-12 17:33 40.84415 -81.17855 9347 ft 301 kts 359°
2026-04-12 17:33 40.86498 -81.17644 8945 ft 300 kts 359°
2026-04-12 17:33 40.88576 -81.17438 8551 ft 298 kts 359°
2026-04-12 17:33 40.90641 -81.17236 8159 ft 296 kts 359°
2026-04-12 17:34 40.92682 -81.17034 7768 ft 293 kts 359°
2026-04-12 17:34 40.94709 -81.16896 7381 ft 288 kts 352°
2026-04-12 17:34 40.96588 -81.17577 6991 ft 276 kts 329°
2026-04-12 17:34 40.98253 -81.18784 6631 ft 272 kts 325°
2026-04-12 17:35 40.99963 -81.19884 6255 ft 274 kts 332°
2026-04-12 17:35 41.01765 -81.20736 5866 ft 276 kts 336°
2026-04-12 17:35 41.03573 -81.21549 5506 ft 272 kts 334°
2026-04-12 17:35 41.05195 -81.22696 5137 ft 265 kts 320°
2026-04-12 17:36 41.06574 -81.24262 4777 ft 259 kts 310°
2026-04-12 17:36 41.08144 -81.25491 4409 ft 272 kts 336°
2026-04-12 17:36 41.10048 -81.25801 4036 ft 277 kts 353°
2026-04-12 17:36 41.11982 -81.25840 3684 ft 277 kts 354°
2026-04-12 17:37 41.13920 -81.25729 3303 ft 282 kts
2026-04-12 17:37 41.15863 -81.25386 3105 ft 282 kts
2026-04-12 17:37 41.17810 -81.24977 3112 ft 284 kts
2026-04-12 17:37 41.19749 -81.24629 3102 ft 282 kts
2026-04-12 17:38 41.21705 -81.24301 3092 ft 284 kts
2026-04-12 17:38 41.23657 -81.23898 3097 ft 284 kts 11°
2026-04-12 17:38 41.25412 -81.22657 3085 ft 289 kts 38°
2026-04-12 17:38 41.26584 -81.20509 3084 ft 287 kts 68°
2026-04-12 17:39 41.26908 -81.17964 3091 ft 282 kts 96°
2026-04-12 17:39 41.26364 -81.15562 3089 ft 268 kts 124°
2026-04-12 17:39 41.25086 -81.13862 3084 ft 257 kts 154°
2026-04-12 17:39 41.23417 -81.13230 3089 ft 249 kts 182°
2026-04-12 17:40 41.21705 -81.13347 3107 ft 246 kts 187°
2026-04-12 17:40 41.20018 -81.13574 3103 ft 242 kts 194°
2026-04-12 17:40 41.18406 -81.14166 3096 ft 238 kts 205°
2026-04-12 17:40 41.17419 -81.14806 3093 ft 238 kts 212°
2026-04-12 17:41 41.16130 -81.16168 3096 ft 233 kts 226°
2026-04-12 17:41 41.15207 -81.17920 3094 ft 236 kts 242°
2026-04-12 17:41 41.14584 -81.19921 3093 ft 236 kts 245°
2026-04-12 17:41 41.13885 -81.21879 3087 ft 235 kts 240°
2026-04-12 17:42 41.13092 -81.23785 3098 ft 237 kts 240°
2026-04-12 17:42 41.12313 -81.25709 3098 ft 232 kts 240°
2026-04-12 17:42 41.11579 -81.27520 3094 ft 218 kts 240°
2026-04-12 17:43 41.10163 -81.30968 3095 ft 206 kts 240°
2026-04-12 17:43 41.09525 -81.32526 3096 ft 179 kts 240°
2026-04-12 17:43 41.08936 -81.33959 3054 ft 177 kts 239°
2026-04-12 17:43 41.08332 -81.35411 2842 ft 182 kts 239°
2026-04-12 17:44 41.07770 -81.36789 2609 ft 156 kts 238°
2026-04-12 17:44 41.06833 -81.39093 2240 ft 135 kts 239°
2026-04-12 17:44 41.06392 -81.40203 2055 ft 136 kts 238°
2026-04-12 17:45 41.05938 -81.41318 1871 ft 138 kts 236°
2026-04-12 17:45 41.05486 -81.42433 1662 ft 129 kts 237°
2026-04-12 17:45 41.05105 -81.43363 1490 ft 106 kts 239°
2026-04-12 17:45 41.04795 -81.44175 1352 ft 94 kts 238°
2026-04-12 17:46 41.04498 -81.44929 1244 ft 91 kts 235°
2026-04-12 17:46 41.04187 -81.45664 1121 ft 91 kts 235°
2026-04-12 17:46 41.03947 -81.46296 1061 ft 61 kts 233°
2026-04-12 17:46 41.03770 -81.46710 1054 ft 43 kts 241°
2026-04-12 17:47 41.03649 -81.47010 1055 ft 32 kts 241°
2026-04-12 17:47 41.03557 -81.47236 1057 ft 25 kts 242°
2026-04-12 17:47 41.03482 -81.47413 1059 ft 18 kts 237°
2026-04-12 17:47 41.03383 -81.47397 1057 ft 17 kts 165°
2026-04-12 17:48 41.03317 -81.47312 1056 ft 17 kts 66°
2026-04-12 17:48 41.03354 -81.47143 1055 ft 20 kts 89°
2026-04-12 17:48 41.03346 -81.46991 1053 ft 14 kts 121°
2026-04-12 17:48 41.03285 -81.46997 1052 ft 6 kts 216°
2026-04-12 17:49 41.03272 -81.47009 1052 ft 0 kts 210°